sat.trackr.live / text

‹ back to catalog

GJZ 04

NORAD 62293 · 2024-238D

PAYLOAD ACTIVE UNKNOWN

§ Identity

Operator
Country
PRC
Launch date
2024-12-12
Launch site
JSC
Launch vehicle
Mass (kg)
RCS (m²)

External: N2YO · Heavens-Above · Gunter

§ Orbital elements

Epoch: 2026-09-22T22:03:03.824064Z

Period
104.71 min
Inclination
59.9155°
Eccentricity
0.0021093
Mean motion
13.75208977 rev/d
Perigee alt
965.4 km
Apogee alt
996.5 km
Semi-major
7,359.1 km
B*
7.5149e-5
RAAN
335.2402°
Arg perigee
70.4176°
Mean anomaly
289.9107°
Rev number
8,935

§ Raw data

GJZ 041 62293U 24238D   26265.91879426 -.00000047  00000+0  75149-4 0  99992 62293  59.9155 335.2402 0021093  70.4176 289.9107 13.75208977 89357

JSON: /api/v1/satellites/62293 · /tle

For live sub-satellite position, see the globe view (requires WebGL).

§ Visibility from observer

Set your observer location to see the next 7 days of passes ≥ 10°. The values pass through the URL so the page stays shareable.

No JS? Fill the form by hand. The geolocation button needs JavaScript.